Вернуться в каталог

DMSP 5D-2 F13 DEB

АктивенSSO
NORAD 42268·DEBRIS·🇺🇸 United States

Запущен Mar 24, 1995 с Vandenberg Space Force Base

Loading…

Ближайшие Пролёты (ближайшие 24 часа)

TLE

СвежийSource: Space-Track

Эпоха: Sep 13, 2026, 19:47 UTC

1 42268U 95015GJ  26256.82465000  .00003031  00000-0  16905-2 0  9998
2 42268  98.7260  92.7733 0116167 101.4769 259.9473 14.08235993579764

Отслеживайте DMSP 5D-2 F13 DEB в реальном времени с AllMySat

Download on the App Store